Powrót do katalogu

NOAA 16 DEB

AktywnySSO
NORAD 41654·DEBRIS·🇺🇸 United States

Wystrzelony Sep 21, 2000 z Vandenberg Space Force Base

Loading…

Następne Przeloty (najbliższe 24 godziny)

TLE

ŚwieżeSource: Space-Track

Epoka: Sep 14, 2026, 08:48 UTC

1 41654U 00055NT  26257.36719765  .00002230  00000-0  88349-3 0  9998
2 41654  98.6222 307.3404 0035919 246.8215 112.9181 14.29530324538032

Śledź NOAA 16 DEB w czasie rzeczywistym z AllMySat

Download on the App Store